This is the latest recevied weather packets stored in our database for station/object OE9GTV. If no packets are shown the sender has not sent any weather packets the latest 10 day(s).
| Time | Temp. | Humidity | Pressure | Rain* | Wind** | Luminosity | Snow |
|---|---|---|---|---|---|---|---|
| 1777798271 | 22.22° C | 41% | 1012 hPa | 0 mm | - | 0 W/m² | - |
| 1777797671 | 21.11° C | 42% | 1012 hPa | 0 mm | - | 0 W/m² | - |
| 1777797071 | 20° C | 40% | 1012.1 hPa | 0 mm | - | 0 W/m² | - |
| 1777796471 | 20° C | 40% | 1012.2 hPa | 0 mm | - | 0 W/m² | - |
| 1777795871 | 20° C | 42% | 1012.2 hPa | 0 mm | - | 0 W/m² | - |
| 1777795271 | 19.44° C | 39% | 1012.3 hPa | 0 mm | - | 0 W/m² | - |
| 1777794671 | 19.44° C | 46% | 1012.3 hPa | 0 mm | - | 0 W/m² | - |
| 1777794071 | 18.89° C | 41% | 1012.2 hPa | 0 mm | - | 0 W/m² | - |
| 1777793471 | 18.33° C | 42% | 1012.3 hPa | 0 mm | - | 0 W/m² | - |
| 1777792871 | 17.78° C | 51% | 1012.3 hPa | 0 mm | - | 0 W/m² | - |
| 1777792271 | 17.78° C | 53% | 1012.4 hPa | 0 mm | - | 0 W/m² | - |
| 1777791670 | 16.67° C | 55% | 1012.5 hPa | 0 mm | - | 0 W/m² | - |
| 1777791071 | 15.56° C | 57% | 1012.5 hPa | 0 mm | - | 0 W/m² | - |
| 1777790470 | 13.89° C | 64% | 1012.6 hPa | 0 mm | - | 0 W/m² | - |
| 1777789870 | 12.78° C | 65% | 1012.7 hPa | 0 mm | - | 0 W/m² | - |
| 1777789270 | 12.78° C | 67% | 1012.7 hPa | 0 mm | - | 0 W/m² | - |
| 1777788670 | 12.22° C | 66% | 1012.7 hPa | 0 mm | - | 0 W/m² | - |
| 1777788070 | 12.22° C | 66% | 1012.8 hPa | 0 mm | - | 0 W/m² | - |
| 1777787471 | 12.22° C | 66% | 1012.7 hPa | 0 mm | - | 0 W/m² | - |
| 1777786870 | 11.67° C | 66% | 1012.9 hPa | 0 mm | - | 0 W/m² | - |
| 1777786270 | 11.67° C | 66% | 1012.8 hPa | 0 mm | - | 0 W/m² | - |
| 1777785670 | 11.67° C | 66% | 1012.9 hPa | 0 mm | - | 0 W/m² | - |
| 1777785070 | 11.67° C | 66% | 1013 hPa | 0 mm | - | 0 W/m² | - |
| 1777784470 | 11.11° C | 67% | 1013 hPa | 0 mm | - | 0 W/m² | - |
| 1777783870 | 11.11° C | 67% | 1013.1 hPa | 0 mm | - | 0 W/m² | - |
* Rain latest hour (hover to see other rain measurements)
** Current wind speed in m/s (hover to see current wind gust speed)